Home   Weather   Karaikudi   Past weeks

Flag for India Past Weather in Karaikudi, Tamil Nadu, India — Yesterday and Last 2 Weeks

Now
79 °F

Drizzle. Mostly cloudy.


Feels Like: 83 °F
Forecast: 77 / 94 °F
Wind: 6 mph from North

Location: Tiruchchirapalli

Current Time: Sep 30, 2016 at 12:19:30 AM

Latest Report: Sep 29, 2016 at 11:30 PM


Visibility: 2 mi

Pressure: 29.77 "Hg

Humidity: 94%

Dew Point: 77 °F

Location of KaraikudiLocation

Past Weather in Karaikudi — Graph

°F

Karaikudi Temperature Yesterday

Maximum temperature yesterday: 97 °F (at 3:00 PM)
Minimum temperature yesterday: 79 °F (at 11:00 PM)
Average temperature yesterday: 87 °F

High & Low Weather Summary for the Past Weeks

 TemperatureHumidityPressure
High102 °F (Sep 16, 2:00 PM)94% (Sep 29, 11:00 PM)29.83 "Hg (Sep 29, 11:00 PM)
Low79 °F (Sep 16, 6:00 AM)31% (Sep 16, 2:00 PM)29.53 "Hg (Sep 18, 9:30 AM)
Average88 °F55%29.71 "Hg
* Reported Sep 14 10:30 PM — Sep 29 11:00 PM, Karaikudi, Weather by CustomWeather, © 2016

Note: Actual official high and low records may vary slightly from our data, if they occured in-between our weather recording intervals... More about our weather records

Advertising

Karaikudi Weather History for the Previous 24 Hours

Scroll right to see more
 ConditionsComfort  
Time TempWeatherWind HumidityBarometerVisibility
11:00 PM
Thu, Sep 29
79 °FDrizzle. Mostly cloudy.6 mph94%29.77 "Hg2 mi
10:30 PM81 °FDrizzle. Mostly cloudy.3 mph89%29.74 "Hg3 mi
10:00 PM81 °FFog.5 mph89%29.74 "Hg3 mi
9:30 PM81 °FFog.6 mph89%29.74 "Hg3 mi
9:00 PM81 °FThunderstorms. Mostly cloudy.8 mph89%29.74 "Hg3 mi
8:30 PM81 °FThunderstorms. Mostly cloudy.6 mph89%29.71 "Hg2 mi
8:00 PM86 °FThunderstorms. Partly cloudy.12 mph70%29.68 "Hg2 mi
7:00 PM91 °FPassing clouds.3 mph49%29.65 "Hg4 mi
6:30 PM91 °FBroken clouds.9 mph49%29.65 "Hg4 mi
6:00 PM93 °FBroken clouds.12 mph47%29.62 "Hg4 mi
5:30 PM93 °FBroken clouds.12 mph59%29.62 "Hg4 mi
5:00 PM95 °FBroken clouds.6 mph44%29.59 "Hg4 mi
4:30 PM95 °FBroken clouds.7 mph44%29.59 "Hg4 mi
4:00 PM95 °FBroken clouds.12 mph44%29.59 "Hg4 mi
3:30 PM95 °FPartly sunny.6 mph47%29.59 "Hg4 mi
3:00 PM97 °FPartly sunny.6 mph44%29.62 "Hg4 mi
2:30 PM95 °FPartly sunny.6 mph47%29.62 "Hg4 mi
2:00 PM95 °FPartly sunny.7 mph50%29.62 "Hg4 mi
1:30 PM93 °FPartly sunny.9 mph49%29.65 "Hg4 mi
1:00 PM93 °FPartly sunny.9 mph49%29.65 "Hg4 mi
12:30 PM93 °FPartly sunny.9 mph49%29.68 "Hg4 mi
12:00 PM91 °FScattered clouds.9 mph52%29.71 "Hg4 mi
11:30 AM91 °FScattered clouds.9 mph52%29.74 "Hg4 mi
11:00 AM91 °FScattered clouds.12 mph52%29.74 "Hg4 mi
10:30 AM90 °FScattered clouds.12 mph55%29.74 "Hg4 mi
10:00 AM86 °FScattered clouds.10 mph62%29.74 "Hg4 mi
9:30 AM86 °FScattered clouds.14 mph62%29.74 "Hg4 mi
9:00 AM84 °FScattered clouds.10 mph66%29.74 "Hg4 mi
8:30 AM84 °FScattered clouds.9 mph66%29.74 "Hg4 mi
8:00 AM84 °FScattered clouds.9 mph62%29.74 "Hg4 mi
7:30 AM82 °FScattered clouds.9 mph66%29.74 "Hg4 mi
7:00 AM82 °FScattered clouds.7 mph66%29.74 "Hg4 mi
6:30 AM81 °FPassing clouds.6 mph70%29.71 "Hg4 mi
6:00 AM81 °FPassing clouds.5 mph70%29.71 "Hg4 mi
5:30 AM81 °FPassing clouds.7 mph70%29.71 "Hg4 mi
5:00 AM81 °FPassing clouds.No wind79%29.68 "Hg4 mi
4:00 AM81 °FPassing clouds.No wind79%29.68 "Hg4 mi
3:30 AM81 °FPassing clouds.No wind79%29.68 "Hg4 mi
3:00 AM81 °FPassing clouds.No wind79%29.68 "Hg4 mi
2:30 AM81 °FPassing clouds.No wind79%29.68 "Hg4 mi
2:00 AM82 °FPassing clouds.No wind74%29.68 "Hg4 mi
1:30 AM82 °FPassing clouds.3 mph74%29.68 "Hg4 mi
1:00 AM84 °FPassing clouds.3 mph70%29.71 "Hg4 mi
12:30 AM84 °FPassing clouds.3 mph70%29.71 "Hg4 mi
12:00 AM84 °FPassing clouds.No wind70%29.71 "Hg4 mi
Weather by CustomWeather, © 2016

See weather overviewHow to use our weather pages